Location: ??????
(55.2000°N, 38.3000°E)
Time: 18:26:55
(UTC+00:00)

MOS 1 Rocket - Pass Details

Date: 15 November 2025
Orbit: 610 x 813 km, 97.4° (Epoch: 14 December)

Event Time Altitude Azimuth Distance (km) Brightness Sun altitude
Rises 04:07:22 0° 16° (NNE) 3,104 6.6 -7.5°
Reaches altitude 10° 04:09:37 10° 21° (NNE) 2,213 5.9 -7.2°
Maximum altitude 04:14:26 56° 100° (E) 891 4.3 -6.6°
Drops below altitude 10° 04:19:28 10° 178° (S) 2,319 6.4 -5.9°
Sets 04:21:53 0° 183° (S) 3,267 7.1 -5.6°
